RH
50 43 23 16 17 27 11 30 32 3 4 1 1 1 1 2 2 3 3 3 3 3 2 2 2 2 2 2 2 2 2 2 2 3 2 3 6 9 8 6 5 6 7 8 9
15 17 13 16 13 10 24 18 5 6 3 1 1 1 1 2 2 2 2 2 2 2 2 2 2 2 2 2 3 4 4 6 6 7 8 11 14 14 13 11 8 7 8 9 9
22 10 13 14 24 33 40 17 16 5 8 2 1 1 2 2 2 2 2 2 2 2 2 2 2 2 3 6 8 10 12 11 11 11 12 13 13 14 12 10 8 9 10 8 7
23 12 18 27 22 20 18 28 25 6 3 2 2 2 2 2 2 3 2 2 2 2 1 1 1 2 5 10 11 12 11 13 12 11 11 12 13 12 10 9 10 9 8 7 5
19 32 43 32 16 18 25 17 5 10 3 2 2 2 2 2 2 3 2 2 2 1 1 1 1 1 5 9 10 9 11 10 11 9 10 11 11 12 10 10 9 7 6 5 5
17 16 8 6 11 11 17 20 12 5 3 2 2 2 2 2 2 2 2 2 2 1 1 1 1 1 3 9 10 9 10 9 9 9 9 8 10 10 6 9 6 5 5 5 5
10 27 23 30 31 24 24 8 6 6 4 3 2 2 1 2 2 2 2 2 2 1 1 1 1 1 2 5 10 9 9 10 8 8 10 8 10 7 8 6 5 4 4 5 7
36 23 25 32 37 28 6 7 7 6 4 3 3 2 1 1 1 2 2 2 2 1 1 1 2 1 1 3 8 9 8 9 8 7 7 8 12 6 6 5 5 6 6 8 8
29 15 26 65 9 6 10 9 7 5 3 3 3 2 2 1 1 1 2 2 2 2 2 2 2 2 2 2 7 10 8 8 8 7 7 8 10 8 4 6 6 8 9 9 9
48 36 56 56 12 11 14 13 12 9 7 3 3 2 2 2 1 1 1 2 2 2 2 2 2 2 1 2 6 10 10 8 8 7 7 8 7 8 5 6 9 10 10 10 10
72 93 80 15 12 18 16 16 14 11 8 6 5 2 2 2 2 1 1 2 2 2 2 2 2 2 2 2 3 8 10 10 8 8 6 8 8 8 7 7 9 10 10 10 11
70 38 10 11 15 19 20 17 17 12 9 7 6 4 3 2 2 2 2 2 2 2 2 2 2 2 2 2 3 7 9 13 11 8 7 8 9 9 8 8 9 10 10 11 11
12 11 10 11 18 20 19 18 18 14 9 7 5 5 5 4 3 3 3 2 3 3 3 3 2 2 2 2 3 9 11 12 11 10 9 8 7 13 12 10 11 11 11 11 12
38 49 16 17 28 23 19 18 19 16 11 9 6 6 5 5 5 4 3 3 3 3 3 3 3 2 3 4 5 9 15 15 15 13 10 14 6 10 14 13 13 13 13 13 12
13 17 40 62 22 19 17 17 21 20 18 16 15 14 12 8 7 7 8 7 7 7 7 7 6 6 6 6 6 8 14 17 16 14 11 14 13 15 13 16 15 16 17 16 16
64 47 18 18 18 17 17 17 19 19 18 18 19 18 18 18 18 19 17 15 15 15 15 15 13 12 10 12 14 17 18 17 16 15 15 15 15 18 18 18 19 19 18 18 19
20 19 18 17 18 18 18 18 19 20 19 18 18 19 18 18 19 20 22 22 22 20 22 22 21 20 21 22 23 23 22 20 16 16 16 15 14 18 20 25 27 26 27 27 24
19 19 19 18 20 19 20 20 21 20 20 20 20 21 20 20 21 22 23 24 23 21 21 21 22 23 24 24 24 24 23 23 22 19 15 17 16 19 24 31 30 28 30 33 32
19 17 17 17 17 17 17 18 20 20 20 19 18 18 18 18 18 19 20 21 22 22 22 20 20 22 23 24 24 24 24 23 23 22 18 16 15 18 24 34 30 29 27 27 27
17 17 16 17 16 16 16 16 16 16 14 13 13 13 12 12 12 13 14 15 15 16 16 15 14 16 19 22 24 25 25 23 23 20 17 13 16 19 26 29 28 28 27 29 32
16 16 16 15 14 14 13 13 12 10 10 10 10 11 13 14 16 17 18 19 19 19 18 18 18 18 19 19 20 20 22 22 21 23 22 22 25 26 32 34 33 34 36 35 32
11 11 12 11 10 10 11 11 12 13 14 15 19 23 26 30 32 32 31 31 31 30 30 30 30 30 29 29 29 28 28 29 29 27 27 26 25 33 44 49 50 48 50 55 59
17 16 18 18 20 22 24 25 26 26 29 30 34 37 39 40 42 42 40 39 40 43 47 50 50 51 53 52 51 48 45 43 42 44 47 52 42 58 71 74 71 63 61 62 62
36 38 38 39 41 40 39 38 38 40 40 40 41 44 46 50 53 52 55 55 58 62 64 64 62 63 60 59 58 57 60 62 64 67 75 56 61 59 70 61 48 48 57 60 61
47 46 48 51 48 42 36 35 37 37 37 39 42 45 44 43 44 43 43 42 42 42 42 40 38 40 40 41 43 43 45 49 51 55 54 46 56 51 53 50 48 59 64 61 56
37 37 36 33 35 42 43 45 45 44 41 38 35 32 32 36 35 31 40 53 54 56 61 57 47 46 26 49 53 35 38 59 62 64 62 63 64 72 71 67 68 70 60 47 34
55 57 53 47 38 22 18 12 7 6 6 5 5 5 6 8 10 8 7 6 6 6 7 5 4 4 3 6 6 6 23 20 22 40 47 51 60 66 64 60 52 45 35 19 12
Wind_Speed
23 22 25 22 18 18 14 6 10 14 11 11 12 12 13 13 11 10 8 6 4 3 2 3 5 7 9 10 11 12 13 12 13 12 12 12 12 12 13 13 13 12 12 13 14
19 24 23 20 17 14 11 12 11 13 12 11 14 13 14 13 11 10 9 7 5 4 4 5 7 9 11 12 13 13 14 12 13 12 11 11 13 13 14 14 14 13 13 15 16
20 21 22 18 16 11 14 15 15 15 12 15 16 15 16 14 13 12 11 8 6 6 7 9 10 11 12 13 13 13 13 12 13 12 12 12 13 13 14 16 13 15 16 17 16
23 21 20 17 15 18 16 13 17 15 15 16 18 16 17 15 15 14 12 9 8 7 8 10 12 12 12 13 14 13 14 14 12 12 11 11 12 13 15 15 16 17 17 17 15
25 23 21 17 18 17 17 18 17 15 16 17 18 19 19 17 17 15 15 12 10 9 9 11 13 14 13 16 16 15 15 14 14 13 12 13 13 13 18 14 18 17 16 15 14
24 23 20 21 18 17 15 17 18 17 17 17 18 21 19 20 18 18 17 14 12 11 10 12 14 15 14 16 17 18 16 15 15 14 13 14 14 16 18 17 18 16 15 14 13
23 23 19 18 17 15 17 20 18 17 16 17 18 18 19 22 22 21 19 17 16 14 13 14 15 17 16 16 18 19 18 17 17 16 15 14 16 18 18 18 17 16 15 14 14
25 22 20 18 19 22 19 21 16 16 18 18 19 18 22 23 23 23 21 19 18 17 16 16 17 18 18 17 18 20 19 19 19 19 16 15 13 22 15 18 18 16 16 15 14
22 19 20 22 22 21 17 16 14 14 15 16 18 20 21 23 23 24 23 22 20 19 17 18 19 20 21 18 19 20 19 19 20 21 18 18 10 25 18 17 18 17 17 16 16
24 18 20 21 20 16 14 14 12 12 13 15 16 19 21 22 23 25 25 24 23 21 19 19 20 22 24 21 19 21 20 20 23 22 20 19 13 19 26 17 19 19 18 18 18
34 28 18 22 18 15 14 12 11 11 13 14 15 19 20 21 23 24 25 25 26 25 22 22 21 24 24 24 22 22 23 22 24 25 24 22 16 15 24 21 20 20 19 20 21
18 17 22 22 19 16 14 12 10 13 13 14 14 18 18 19 21 23 25 25 27 26 25 24 24 26 26 27 26 26 25 25 23 26 26 23 18 18 23 23 22 23 21 23 24
20 21 22 22 20 16 13 12 12 11 12 13 13 15 16 17 19 22 24 25 26 26 27 25 26 27 28 29 28 27 28 28 28 26 26 26 18 14 24 25 22 23 23 24 26
20 20 22 19 16 15 15 15 13 12 11 11 11 11 12 14 15 18 19 22 24 24 26 25 26 27 28 29 31 27 29 30 29 28 27 27 20 13 17 25 23 25 26 28 29
21 19 17 18 19 19 17 17 15 12 10 11 9 9 10 11 13 15 16 18 21 22 24 26 26 27 27 29 30 29 29 30 31 31 30 30 27 18 25 21 24 26 28 31 33
20 21 21 20 20 19 19 17 14 13 12 11 13 12 12 13 13 14 15 17 17 17 19 20 21 22 23 24 26 28 30 31 31 32 31 31 30 20 23 26 24 26 29 33 35
20 20 20 21 21 21 19 16 14 13 14 13 13 13 14 14 15 15 17 19 20 19 19 21 22 23 24 25 26 28 31 34 35 35 35 34 34 29 29 27 25 27 30 34 35
21 20 21 22 21 21 18 16 15 16 15 15 16 16 16 17 17 18 19 22 24 25 24 23 22 24 26 27 29 30 32 36 41 39 39 35 34 29 29 29 25 27 30 33 36
22 22 22 21 21 19 17 16 16 18 19 19 19 20 20 21 22 21 21 22 24 26 28 28 24 26 26 28 31 32 33 35 39 41 41 40 35 30 33 28 30 31 35 39 44
22 22 21 21 19 19 17 17 19 21 22 21 21 22 22 25 25 26 24 26 28 30 32 32 31 28 29 31 32 34 36 38 41 45 49 45 41 36 35 38 38 39 39 38 42
24 23 20 21 21 20 19 21 22 23 24 23 22 23 23 24 25 26 24 26 27 30 32 34 34 30 31 32 32 34 37 39 42 42 47 50 49 39 41 41 45 46 43 43 44
24 22 24 24 23 22 22 23 24 25 25 24 24 25 26 28 27 28 28 29 31 32 33 35 38 35 34 34 35 36 38 39 43 43 45 45 54 45 46 46 52 51 49 50 51
24 25 25 24 23 24 24 25 26 26 28 28 29 29 30 31 34 32 32 34 35 35 38 39 41 42 41 39 41 42 40 43 44 44 44 51 55 50 49 52 57 57 54 54 56
28 28 27 28 28 28 29 30 31 31 32 34 34 34 36 36 37 40 39 40 39 39 42 45 45 45 48 48 48 49 46 47 47 49 50 56 56 46 51 57 60 60 56 60 60
35 35 33 33 32 32 34 32 33 34 34 35 36 37 38 39 40 42 44 45 44 45 46 47 49 50 49 50 53 54 55 51 52 50 58 57 55 53 56 62 64 62 62 62 61
35 34 33 33 33 34 34 32 33 35 34 36 37 37 38 39 42 43 45 44 44 44 45 48 51 52 50 51 52 55 51 49 51 53 58 59 59 52 59 60 60 60 62 62 61
36 34 33 31 32 34 32 29 25 24 23 21 21 23 24 26 27 27 28 29 31 32 34 36 37 40 35 40 43 41 38 39 39 43 45 51 53 57 59 59 59 57 57 47 36
Wind_Direction
215 215 226 221 216 225 230 227 240 248 258 249 212 198 190 184 184 177 191 202 187 230 278 310 318 321 325 320 319 316 308 307 302 301 298 298 298 295 288 286 282 281 279 285 286
215 220 219 220 219 208 225 236 243 253 262 247 217 205 198 194 198 196 207 214 216 249 285 303 313 317 320 318 316 314 305 304 297 293 291 292 292 294 291 290 285 286 287 288 291
220 223 218 216 208 213 225 233 235 246 254 244 219 211 212 202 208 211 216 221 233 258 287 305 309 311 312 314 312 308 298 295 290 285 282 283 288 291 291 285 289 285 286 287 290
215 219 214 215 220 217 225 230 239 251 254 238 223 215 217 211 216 218 225 226 244 262 287 302 307 306 308 312 312 309 309 301 296 297 292 286 283 288 286 289 285 287 287 288 292
213 214 214 215 207 214 225 235 237 246 249 238 231 223 222 218 221 225 232 232 242 260 281 298 307 304 302 314 318 314 312 305 300 300 298 290 286 286 282 288 285 287 286 288 287
208 213 207 205 206 216 217 235 239 242 244 240 237 229 227 229 228 230 236 239 247 258 275 294 304 306 298 305 316 316 310 303 295 296 295 290 289 278 287 285 285 285 283 282 282
207 202 200 202 211 216 230 241 241 241 247 245 241 236 233 233 232 234 236 239 249 257 269 285 297 302 303 300 308 315 309 305 298 297 295 295 289 282 288 281 281 282 280 279 281
217 203 206 214 217 227 233 238 238 243 247 244 243 238 234 235 235 236 237 241 248 257 268 281 290 295 299 298 302 310 311 305 301 298 298 299 287 292 278 280 279 279 278 278 281
205 207 202 215 229 224 227 236 239 242 251 249 250 245 239 237 238 240 239 242 248 255 263 277 287 291 294 298 296 304 308 304 301 296 299 297 274 280 288 274 279 278 276 277 280
211 197 197 218 230 224 225 232 237 250 252 256 252 249 246 241 241 241 244 245 248 253 264 274 285 287 291 295 292 297 302 304 296 293 293 293 290 274 283 281 277 277 277 279 281
223 219 197 233 223 224 228 235 248 256 260 262 258 254 249 248 246 247 249 250 252 257 263 272 283 282 287 287 290 289 295 300 294 292 291 290 298 282 281 290 276 276 277 278 278
205 212 220 221 225 225 234 245 254 261 264 264 265 263 256 252 255 255 255 254 257 261 265 274 280 284 285 285 286 288 290 296 297 292 291 292 303 298 283 286 276 277 277 275 279
217 216 215 217 223 229 239 251 256 263 269 270 268 269 272 271 265 263 262 262 262 266 269 277 280 280 282 283 283 288 290 292 295 298 300 298 298 300 287 290 280 276 276 277 275
210 213 224 221 225 236 240 247 256 262 265 271 275 283 281 277 276 272 270 272 274 275 277 281 281 282 284 286 288 291 293 298 301 301 302 310 297 305 293 286 283 278 274 274 276
213 211 219 225 232 236 240 246 252 261 273 276 284 290 292 293 288 286 287 287 286 287 286 287 287 287 289 289 291 293 294 296 299 301 301 303 306 323 298 292 280 279 275 274 275
212 216 223 228 232 238 241 246 255 266 271 270 281 288 292 296 296 298 302 299 299 299 298 297 298 298 295 295 295 296 297 297 298 300 303 303 306 322 304 296 291 285 279 279 278
215 220 224 231 235 238 240 244 252 262 270 276 281 288 290 289 293 295 297 299 299 298 297 299 299 299 299 299 299 301 301 302 300 301 302 304 304 313 309 311 302 290 287 281 276
224 225 229 233 235 238 242 250 260 265 268 273 279 284 290 293 293 293 294 294 295 294 291 290 290 293 295 297 298 300 302 304 302 300 299 303 307 313 310 315 301 288 279 276 276
230 233 235 237 241 247 253 259 262 267 272 276 281 284 287 286 287 287 289 291 290 292 293 295 294 294 297 299 300 300 300 299 299 298 300 301 302 308 313 314 304 293 286 285 283
232 233 234 239 246 251 256 259 264 267 273 277 278 281 281 282 284 283 284 285 286 288 291 292 293 294 293 294 294 297 298 297 297 299 301 302 304 310 311 308 301 294 293 290 289
231 235 239 244 247 253 256 257 262 267 269 270 272 276 277 279 281 283 288 286 288 289 291 293 294 298 298 296 297 296 294 294 295 297 299 302 300 310 311 302 298 297 296 294 290
231 235 241 245 248 250 254 258 261 266 269 272 274 275 277 280 285 287 289 288 288 289 292 294 297 299 298 298 297 295 294 295 293 294 295 299 294 309 306 303 298 297 299 298 297
231 236 240 247 251 254 256 260 262 265 269 271 271 274 277 281 286 287 287 286 288 291 294 295 295 297 295 295 295 293 295 294 292 293 297 291 296 301 306 302 300 300 302 305 305
241 244 248 251 254 258 262 264 267 268 270 274 276 279 280 283 284 284 283 283 285 287 289 291 293 294 294 296 295 294 293 291 295 297 295 293 297 298 302 298 296 299 306 305 305
248 249 252 257 260 263 265 266 268 271 272 275 277 280 283 283 284 285 286 287 288 289 290 290 292 291 292 293 293 295 293 297 298 297 292 297 295 301 296 295 297 305 305 304 306
248 252 253 257 261 264 267 268 268 270 272 273 276 276 277 281 282 285 284 285 286 287 291 291 291 292 292 290 291 289 294 297 292 291 291 292 294 293 290 293 298 299 300 306 310
252 254 255 256 261 263 263 264 264 267 274 282 283 284 289 293 301 306 307 305 302 303 299 299 302 302 305 302 300 306 307 300 294 291 288 288 289 290 293 294 297 301 305 311 314